Flag for Canada Weather past 2 weeks in Québec, Quebec, Canada

Now
73 °F

Scattered clouds.


Feels Like: 76 °F
Forecast: N/A
Wind: 14 mph from North

Location: Quebec Weather Station

Current Time: Jul 23, 2014 at 6:43:04 PM

Latest Report: Jul 23, 2014 at 6:00 PM


Visibility: 30 mi

Pressure: 29.72 "Hg

Humidity: 61%

Dew point: 59 °F

Location of QuébecLocation

Historic Weather in Québec — Graph

°F

Québec temperature yesterday

Maximum temperature yesterday: 84 °F (at 12:00 PM)
Minimum temperature yesterday: 61 °F (at 5:00 AM)
Average temperature yesterday: 70 °F

Past Weeks' High & Low Weather Summary

 TemperatureHumidityPressure
High84 °F (Jul 21, 3:00 PM)100% (Jul 16, 4:00 AM)30.27 "Hg (Jul 16, 4:00 AM)
Low50 °F (Jul 11, 6:00 AM)42% (Jul 11, 2:00 PM)29.41 "Hg (Jul 9, 12:54 AM)
Average68 °F73%29.95 "Hg
* Reported Jul 8 5:00 PM — Jul 23 5:00 PM, Québec, Weather by CustomWeather, © 2014

Note: Actual official high and low records may vary slightly from our data, if they occured in-between our weather recording intervals... More about our weather records

Advertising

Québec weather history for previous 24 hours

 ConditionsComfort  
Time TempWeatherWind HumidityBarometerVisibility
5:00 PM
Jul 23
73 °FPartly sunny.15 mph65%29.71 "Hg30 mi
4:00 PM77 °FBroken clouds.15 mph61%29.68 "Hg30 mi
3:00 PM73 °FPartly sunny.12 mph89%29.68 "Hg15 mi
2:00 PM72 °FPartly sunny.9 mph88%29.67 "Hg10 mi
1:00 PM75 °FSprinkles. Overcast.16 mph89%29.67 "Hg5 mi
12:00 PM73 °FSprinkles. Partly sunny.13 mph94%29.68 "Hg10 mi
11:00 AM73 °FSprinkles. Overcast.15 mph83%29.70 "Hg4 mi
10:00 AM77 °FOvercast.12 mph74%29.70 "Hg15 mi
9:00 AM75 °FBroken clouds.14 mph74%29.70 "Hg15 mi
7:00 AM70 °FOvercast.9 mph83%29.70 "Hg15 mi
6:00 AM68 °FPartly cloudy.8 mph83%29.71 "Hg15 mi
5:00 AM66 °FPassing clouds.7 mph88%29.72 "Hg15 mi
4:00 AM64 °FPassing clouds.6 mph94%29.74 "Hg15 mi
2:00 AM68 °FPassing clouds.3 mph88%29.79 "Hg15 mi
1:00 AM70 °FPassing clouds.No wind83%29.79 "Hg12 mi
12:00 AM70 °FPassing clouds.3 mph83%29.81 "Hg15 mi
11:00 PM
Jul 22
72 °FPassing clouds.5 mph83%29.83 "Hg15 mi
10:00 PM73 °FPassing clouds.5 mph78%29.86 "Hg15 mi
9:00 PM77 °FPassing clouds.9 mph69%29.87 "Hg15 mi
8:00 PM79 °FPartly sunny.14 mph65%29.88 "Hg30 mi
Weather by CustomWeather, © 2014

See weather overviewHow to use our weather pages